Regional Weather Roundup
Issued by NWS Upton, NY

Current Version | Previous Version | Graphics & Text | Print | Product List | Glossary Off
Versions: 1 2 3 4 5 6 7 8 9 10 11 12 13 14 15 16 17 18 19 20 21 22 23 24 25 26 27 28 29 30 31 32 33 34 35 36 37 38 39 40 41 42 43 44 45 46 47 48 49 50

000
ASUS41 KOKX 241905
RWROKX

REGIONAL WEATHER ROUNDUP
NATIONAL WEATHER SERVICE NEW YORK NY
300 PM EDT THU JUL 24 2014

NOTE: "FAIR" INDICATES FEW OR NO CLOUDS BELOW 12,000 FEET WITH NO
SIGNIFICANT WEATHER AND/OR OBSTRUCTIONS TO VISIBILITY.

NYZ071-072-176-178-NJZ106-104-242000-
NEW YORK CITY METRO AREA


CITY           SKY/WX    TMP DP  RH WIND       PRES   REMARKS
CENTRAL PARK   PTSUNNY   79  57  46 VRB5      29.88F
LAGUARDIA APRT CLOUDY    79  59  50 NE8       29.85F
KENNEDY INTL   CLOUDY    81  58  45 N12       29.86F
NEWARK/LIBERTY PTSUNNY   79  60  52 N12       29.85F
BRNX BOT. GARD   N/A     77  57  50 NW6       29.87S
TETERBORO      CLOUDY    83  58  42 VRB6      29.84F
$$

NYZ177-179-078>081-242000-
LONG ISLAND NEW YORK

CITY           SKY/WX    TMP DP  RH WIND       PRES   REMARKS
FARMINGDALE    CLOUDY    78  60  53 N13       29.85F
ISLIP          CLOUDY    80  60  50 NW10      29.83S
SHIRLEY        CLOUDY    79  62  56 NW9       29.85S
WESTHAMPTON    CLOUDY    79  61  53 NW9G21    29.85S
MONTAUK POINT    N/A     77  65  66 W5        29.84S
$$

NYZ052-065-067-242000-
HUDSON VALLEY

CITY           SKY/WX    TMP DP  RH WIND       PRES   REMARKS
WHITE PLAINS   CLOUDY    76  56  49 N12G17    29.86F
NEWBURGH       PTSUNNY   75  59  57 NE12      29.89F
MONTGOMERY     PTSUNNY   79  59  50 N5        29.87F
POUGHKEEPSIE   MOSUNNY   78  58  49 N7        29.86F
ALBANY         PTSUNNY   76  58  53 N5        29.89F
$$

NJZ001-105-106-008-010-013-015-019>022-104-242000-
NEW JERSEY

CITY           SKY/WX    TMP DP  RH WIND       PRES   REMARKS
NEWARK/LIBERTY PTSUNNY   79  60  52 N12       29.85F
TETERBORO      CLOUDY    83  58  42 VRB6      29.84F
CALDWELL       PTSUNNY   80  59  48 VRB5      29.86F
MORRISTOWN     PTSUNNY   79  63  57 E7        29.86F
SOMERVILLE     PTSUNNY   81  57  43 N8        29.85F
LINDEN         MOCLDY    82  60  48 NE7       29.87F
SUSSEX         MOSUNNY   80  56  43 N8        29.87F
ANDOVER          N/A     77  57  50 VRB6      29.89S
TRENTON        MOSUNNY   79  57  46 N5        29.86F
MILLVILLE      PTSUNNY   79  61  53 NW7       29.87F
ATLANTIC CITY  PTSUNNY   80  65  59 VRB6      29.85F
WRIGHTSTOWN    PTSUNNY   79  62  56 N10       29.84F
TOMS RIVER     CLOUDY    79  63  57 N8        29.85F
BELMAR         CLOUDY    79  63  57 NW7       29.85F
$$

PAZ047>061-062-071-242000-
EASTERN PENNSYLVANIA

CITY           SKY/WX    TMP DP  RH WIND       PRES   REMARKS
PHILADELPHIA   PTSUNNY   81  58  45 N13       29.87F
ALLENTOWN      MOSUNNY   81  53  37 N8        29.89S
SCRANTON       CLOUDY    76  49  38 N10G20    29.93F
$$

CTZ002-004>006-009-010-012-RIZ004-006-007-MAZ004-011-015-242000-
SOUTHERN NEW ENGLAND
 IN CT

CITY           SKY/WX    TMP DP  RH WIND       PRES   REMARKS
BRADLEY INTL   PTSUNNY   81  55  40 N7        29.83S
HARTFORD       CLOUDY    79  56  45 N9G21     29.83R
DANBURY        PTSUNNY   76  56  49 NW8       29.88F
WTRBRY/OXFORD  MOSUNNY   73  59  60 N10G16    29.89S
BRIDGEPORT     CLOUDY    80  61  52 NW9       29.84S
MERIDEN        CLOUDY    81  60  48 N5        29.83S
NEW HAVEN      CLOUDY    80  62  54 N3        29.83S
CHESTER        FAIR      79  61  53 N6        29.85S
GROTON         CLOUDY    80  64  58 NW7       29.81S
WILLIMANTIC    CLOUDY    80  60  50 NW8       29.83R

 IN RI

CITY           SKY/WX    TMP DP  RH WIND       PRES   REMARKS
PROVIDENCE     PTSUNNY   77  64  64 NE5       29.83R
BLOCK ISLAND   CLOUDY    72  64  78 E9        29.84S
WESTERLY       CLOUDY    75  67  76 SE9       29.83R

 IN MA

CITY           SKY/WX    TMP DP  RH WIND       PRES   REMARKS
BOSTON         PTSUNNY   71  61  70 E15       29.84S
WORCESTER      PTSUNNY   75  58  55 N8        29.86S
WESTFIELD      PTSUNNY   80  58  46 N9        29.84S
PROVINCETOWN   PTSUNNY   70  64  83 CALM      29.83S
NANTUCKET      CLOUDY    70  65  84 N16       29.81R
$$

ANZ330-335-338-340-345-350-353-355-242000-
COASTAL MARINE OBSERVATIONS


STATION/POSITION TIME  SKY/WX   TEMP    WIND        PRES    VSBY  WAVE
                                AIR SEA DIR/SP/G                  HT/PER
                 (UTC)          (F)     (DEG/KT/KT) (MB)    (MI)  (FT/S)
NY HARB ENTRANCE NOT AVBL
4S FIRE IS       NOT AVBL
23SW MTP         1900            72 71              1009.7          2/ 7
HUDSON CANYON    1900            72 74  340/ 10/ 12 1010.2          3/ 7
EXECUTION ROCKS  1900            77 72   30/  8/ 14   N/A
WESTERN LI SOUND 1900            75     360/ 10/ 14   N/A           1
CENTRAL LI SOUND 1800            75 73  280/  4/  6   N/A           1
EASTERN LI SOUND 1800            75 67  310/  4/  6   N/A
ROBBINS REEF     1900            76      40/ 10/ 11   N/A
$$


>>>>>>>>>>>>>>>>>>>>>>>>>>>> KEY <<<<<<<<<<<<<<<<<<<<<<<<<<<
>                                                          <
>     SKY/WX - SKY CONDITION/PRESENT WEATHER               <
>     TMP    - TEMPERATURE IN FAHRENHEIT                   <
>     DP     - DEWPOINT IN FAHRENHEIT                      <
>     RH     - RELATIVE HUMIDITY IN PERCENT                <
>     WIND   - DIRECTION AND SPEED IN MPH                  <
>     PRES   - MEAN SEA LEVEL PRESSURE IN INCHES OF HG     <
>     WCI    - WIND CHILL INDEX                            <
>     VSB    - VISIBILITY IN MILES                         <
>     HX     - HEAT INDEX                                  <
>     TC     - TEMPERATURE IN CELSIUS                      <
>     VRB    - VARIABLE WIND DIRECTION                     <
>                                                          <
>>>>>>>>>>>>>>>>>>>>>>>>>>>> KEY <<<<<<<<<<<<<<<<<<<<<<<<<<<





USA.gov is the U.S. government's official web portal to all federal, state and local government web resources and services.